THORAD DELTA 1 DEB, 42613

Orbit data source: Space-Track

THORAD DELTA 1 DEB, 42613 is space debris in SSO originally from a launch on Fri, 15 Nov 1974 UTC launched from the Air Force Western Test Range (AFWTR). Debris objects in space refer to the collection of defunct objects orbiting the Earth. Examples of debris include non-operational satellites, rocket bodies, and fragments generated from explosions, collisions, or faulty payload assembly.

Loading next visibility...
Identifier
42613, 1974-089GE
Orbit
SSO
Country
Flag of USUS
Related business
Manufacturer
Unknown
Mission
Spacecraft
Bus & Motor
Unknown
Mass
Unknown
Launch date (UTC)
1974-11-15 (52 years ago)
Launch vehicle
Unknown
Launch site
Air Force Western Test Range (AFWTR)
Object type
Payload
Rocket body
Debris
Shape & HBR
Unknown shape, 0.1 m
Radar Cross Section
Small (<0.1 m²)

Expand to show TLE details & history
Last TLE update: 3 weeks ago

TLE from 3 weeks ago
0 THORAD DELTA 1 DEB
1 42613U 74089GE  26185.88309208 -.00000040  00000-0  44952-4 0  9997
2 42613 102.2555 194.9173 0067506 150.9587 328.1419 12.43778022573628
Epoch: 2026-07-04T21:11Z
TLE epoch observation values (Epoch: 2026-07-04T21:11:39.155Z)
Latitude
59.10139°
Longitude
155.28673°
Altitude
1,455.404 km
Speed
7.16 km/s
True Right ascension
02h 24m 21s
True Declination
58° 57' 47"
Sunlit
Object was in daylight at epoch
Visualization orbit readout
Latitude
Unknown
Longitude
Unknown
Altitude
Unknown
Speed
Unknown
Apparent Right ascension
Unknown
Apparent Declination
Unknown
Sunlit
N/A
Visualization observer readout
Local Sidereal Time
08:17:06
Azimuth
Unknown
Elevation
Unknown
Doppler factor
Unknown
Orbital elements
Apogee altitude
1,541.316 km
Perigee altitude
1,435.111 km
Semi-major axis
7,866.35 km
Eccentricity
0.00675
Inclination
102.2555°
RAAN
194.9173°
Arg. of periapsis
150.9587°
True anomaly
327.73066°
Mean anomaly
328.1419°
Eccentric anomaly
327.93657°
Mean motion
3.11088 °/min
Orbital period
115.72 mins
BSTAR
0.000044952
Loading maneuver chart data...
Computing Atmospheric mass density...

Documentation

Showing up to 5 results
|